Regional Weather Roundup
Issued by NWS Portland, ME

Home | Current Version | Previous Version | Text Only | Print | Product List | Glossary On
Versions: 1 2 3 4 5 6 7 8 9 10 11 12 13 14 15 16 17 18 19 20 21 22 23 24 25 26 27 28 29 30 31 32 33 34 35 36 37 38 39 40 41 42 43 44 45 46 47 48 49 50
000
ASUS41 KGYX 190910
RWRGYX
WEATHER ROUNDUP FOR MAINE AND NEW HAMPSHIRE
NATIONAL WEATHER SERVICE GRAY ME
500 AM EDT WED SEP 19 2018

MEZ002-005-006-010-012-015-018-020-021-024-026-027-029-191000-
MAINE

CITY           SKY/WX    TMP DP  RH WIND       PRES   REMARKS
PORTLAND       CLOUDY    58  55  90 NE8       29.89S
SANFORD        CLOUDY    59  56  89 NE7       29.89R
BAR HARBOR     CLOUDY    53  52  96 N12       29.90R FOG
WISCASSET      CLOUDY    56  54  93 VRB3      29.91R
ROCKLAND       LGT RAIN  55  55 100 VRB7      29.89R FOG
FRYEBURG       CLOUDY    59  55  87 E5        29.90
LEWISTONAUBURN CLOUDY    55  54  96 N10       29.90S
AUGUSTA        CLOUDY    53  52  96 N8        29.92R
BANGOR         DRIZZLE   53  52  96 N10       29.92R FOG
GREENVILLE       N/A     49  48  97 E6        29.90R
MILLINOCKET    CLOUDY    50  48  93 NE5       29.96R FOG
HOULTON        CLOUDY    48  48 100 N6        29.94R FOG
PRESQUE ISLE   CLOUDY    47  45  93 N7        29.99R
FRENCHVILLE    LGT RAIN  45  40  82 NE7       29.99R
CARIBOU        CLOUDY    47  43  86 N7        29.98R
$$

NHZ002-005-008-009-011-012-014-191000-
NEW HAMPSHIRE

CITY           SKY/WX    TMP DP  RH WIND       PRES   REMARKS
PORTSMOUTH     CLOUDY    62  34  35 NE10      29.83S
ROCHESTER      CLOUDY    60  59  96 VRB5      29.88R
NASHUA         CLOUDY    67  67 100 VRB3      29.86R
MANCHESTER     CLOUDY    66  65  96 E8        29.84R
CONCORD        CLOUDY    66  64  93 E7        29.85R
LACONIA        CLOUDY    64  63  96 E10       29.87R
PLYMOUTH       FAIR      58  56  96 CALM      29.87R FOG
BERLIN         CLOUDY    59  58  96 CALM      29.89R
WHITEFIELD     CLOUDY    61  58  90 CALM      29.89R
JAFFREY        FAIR      61  61 100 CALM      29.88R FOG
KEENE          FOG      N/A N/A N/A CALM      29.86R VSB 1/4
LEBANON        CLOUDY    63  60  90 CALM      29.87S
MT WASHINGTON  MOCLDY    46  32  57 NW26        N/A
$$

VTZ005-007-008-191000-
VERMONT

CITY           SKY/WX    TMP DP  RH WIND       PRES   REMARKS
ST JOHNSBURY     N/A     59  56  89 MISG      29.88R
MONTPELIER     CLOUDY    60  60 100 NW3       29.93R
BURLINGTON     CLOUDY    56  50  80 N8        29.92R
$$

MAZ007-012-024-CTZ003-RIZ002-NYZ038-NYZ072-191000-
SOUTHERN NEW ENGLAND AND NY

CITY           SKY/WX    TMP DP  RH WIND       PRES   REMARKS
BOSTON         CLOUDY    65  63  93 NE20      29.82R FOG
WORCESTER      CLOUDY    65  64  97 N8        29.85R
NANTUCKET      CLOUDY    65  64  97 NE9       29.77R FOG
PROVIDENCE     MOCLDY    66  66 100 N6        29.80R
HARTFORD       FAIR      66  65  96 N7        29.82R
ALBANY         MOCLDY    65  61  87 N9        29.88R
NEW YORK CITY  FAIR      73  66  78 N3        29.79R
$$

ANZ081-ANZ082-ANZ150-NHZ014-MEZ023>029-191000-
COASTAL MARINE OBSERVATIONS

STATION/POSITION TIME  TEMP    WIND        PRES    WAVE
                       AIR SEA DIR/SP/G            HT/PER
                 (UTC) (F)     (DEG/KT/KT) (MB)    (FT/S)
MOUNT DESERT ROC 0900   54     360/ 19/ 22 1011.4R
MATINICUS ROCK   0800   56      30/ 15/ 16 1010.7R
ISLE OF SHOALS   0800   60      50/ 22/ 25 1009.3R
JEFFREYS LEDGE   0836      64                N/A     3/ 4
$$

.............KEY..............
   WCI - WIND CHILL
   TC  - TEMPERATURE IN CELSIUS
   VSB - VISIBILITY IN MILES
   HX  - HEAT INDEX
   FAIR- INDICATES FEW OR NO CLOUDS BELOW 12,000 FT, WITH NO
         SIGNIFICANT WEATHER AND/OR OBSTRUCTIONS TO VISIBILITY.





USA.gov is the U.S. government's official web portal to all federal, state and local government web resources and services.